Regional Weather Roundup
Issued by NWS

Home | Current Version | Previous Version | Text Only | Print | Product List | Glossary Off
Versions: 1 2 3 4 5 6 7 8 9 10 11 12 13 14 15 16 17 18 19 20 21 22 23 24 25 26 27 28 29 30 31 32 33 34 35 36 37 38 39 40 41 42 43 44 45 46 47 48 49 50

871
ASUS43 KDMX 211301
RWRIA

WEATHER ROUNDUP FOR IOWA
NATIONAL WEATHER SERVICE DES MOINES IA
700 AM CST SUN JAN 21 2018

NOTE: "FAIR" INDICATES FEW OR NO CLOUDS BELOW 12,000 FEET WITH NO
SIGNIFICANT WEATHER AND/OR OBSTRUCTIONS TO VISIBILITY.

* - THESE STATIONS ARE NOT NWS STATIONS...THUS NOT UNDER NWS
QUALITY CONTROL.  THEY ALSO DO NOT REPORT WEATHER SUCH
AS PRECIPITATION OR FOG.

IAZ001>003-012>014-020>022-031>034-043>046-211400-
   NORTHWEST IOWA

CITY           SKY/WX    TMP DP  RH WIND       PRES   REMARKS
CARROLL *      CLOUDY    36  34  93 N7        29.86S FOG     WCI  30
CHEROKEE *     CLOUDY    32  30  93 NE5       29.90R WCI  27
DENISON *      CLOUDY    34  34 100 N5        29.87F FOG     WCI  30
LE MARS *      CLOUDY    28  27  93 N6        29.90R WCI  22
ORANGE CITY *  CLOUDY    34  30  86 NE7       29.90R WCI  28
SHELDON *      CLOUDY    30  27  86 NE7       29.90R WCI  23
SIOUX CITY     CLOUDY    32  29  88 NE6       29.89S WCI  26
SPENCER        CLOUDY    29  26  89 NE8       29.91S WCI  21
STORM LAKE *   CLOUDY    32  30  93 NE14      29.88S WCI  22
$$

IAZ055>058-069>071-079>083-090>094-211400-
   SOUTHWEST IOWA

CITY           SKY/WX    TMP DP  RH WIND       PRES   REMARKS
ATLANTIC *     CLOUDY    39  37  93 NE7       29.83F FOG     WCI  34
AUDUBON *      CLOUDY    37  34  87 NE8       29.86S FOG     WCI  31
CLARINDA *     CLOUDY    41  41 100 NE3         N/A  FOG
COUNCIL BLFS * CLOUDY    39  39 100 NE9       29.80F FOG     WCI  33
CRESTON *      CLOUDY    39  37  93 NE9       29.83S FOG     WCI  33
HARLAN  *      CLOUDY    37  37 100 N6        29.86F WCI  33
LAMONI         FOG       42  40  92 CALM      29.82S VSB 1/2
RED OAK *      CLOUDY    41  39  93 NE8       29.82S
SHENANDOAH *   CLOUDY    41  41 100 NE12      29.80F FOG
$$

IAZ047>049-059>061-072>074-084-211400-
   CENTRAL IOWA

CITY           SKY/WX    TMP DP  RH WIND       PRES   REMARKS
AMES           CLOUDY    37  36  96 N6        29.88S FOG     WCI  32
ANKENY *       CLOUDY    37  37 100 CALM      29.88S FOG
BOONE *        CLOUDY    36  36 100 NE9       29.86F FOG     WCI  29
CHARITON *     CLOUDY    41  39  93 E6        29.84F
DES MOINES     CLOUDY    40  38  93 NE8       29.86S FOG     WCI  34
GRINNELL*      CLOUDY    37  36  97 NE7       29.89R FOG     WCI  31
KNOXVILLE *    CLOUDY    39  39 100 E7        29.84F FOG     WCI  34
MARSHALLTOWN   CLOUDY    37  36  96 E7        29.88S FOG     WCI  32
NEWTON *       CLOUDY    37  37 100 NE6       29.88S FOG     WCI  33
PELLA *        CLOUDY    40  38  93 E5        29.88F
$$

IAZ004>006-015-016-023>025-035-036-211400-
   NORTH CENTRAL IOWA

CITY           SKY/WX    TMP DP  RH WIND       PRES   REMARKS
ALGONA *       CLOUDY    30 N/A N/A NE7       29.91R WCI  23
CLARION *      CLOUDY    28  28 100 NE6       29.91S FOG     WCI  22
ESTHERVILLE    CLOUDY    27  27 100 N7        29.92R WCI  19
FORT DODGE *   CLOUDY    31  30  96 N5        29.90  WCI  26
MASON CITY     CLOUDY    25  23  92 CALM      29.94R FOG
FOREST CITY *    N/A     30  28  93 SE3       29.92R
WEBSTER CITY * CLOUDY    34  34 100 N7        29.87S FOG     WCI  28
IOWA FALLS *   CLOUDY    36  35  97 E5        29.90S FOG     WCI  32
$$

IAZ007>011-017>019-026>030-037>042-050>054-066-211400-
   NORTHEAST IOWA

CITY           SKY/WX    TMP DP  RH WIND       PRES   REMARKS
CEDAR RAPIDS   CLOUDY    39  37  92 E6        29.89R FOG     WCI  35
CHARLES CITY * FOG       28  28 100 E5        29.93S VSB<1/4 WCI  23
CLINTON *      CLOUDY    37  36  96 E8        29.93F FOG     WCI  31
DECORAH *      FOG       27  27 100 CALM      29.92F VSB 1/4
DUBUQUE        CLOUDY    34  32  92 NE6       29.92F FOG     WCI  29
MONTICELLO *   CLOUDY    36  36 100 NE5       29.91S FOG     WCI  32
OELWEIN *      CLOUDY    34  34 100 E6        29.92S FOG     WCI  29
WATERLOO       CLOUDY    34  33  96 NE5       29.91S FOG     WCI  30
$$

IAZ064-065-067-068-078-211400-
   EAST CENTRAL IOWA

CITY           SKY/WX    TMP DP  RH WIND       PRES   REMARKS
DAVENPORT      CLOUDY    40  36  86 SE6       29.93S
IOWA CITY      CLOUDY    42  37  82 CALM      29.92R
MT. PLEASANT * CLOUDY    41  37  87 SE5       29.90S
MUSCATINE *    CLOUDY    39  37  93 CALM      29.92S
QUAD CITIES    CLOUDY    40  37  89 E6        29.92R
$$

IAZ062-063-075>077-085>089-095>099-211400-
   SOUTHEAST IOWA

CITY           SKY/WX    TMP DP  RH WIND       PRES   REMARKS
BURLINGTON     CLOUDY    41  37  86 SE3       29.90S
FAIRFIELD *    CLOUDY    41  39  93 SE6       29.88S
FORT MADISON * CLOUDY    43  39  87 S6        29.91S
KEOKUK *       CLOUDY    41  39  93 MISG      29.89F
OSKALOOSA *    CLOUDY    39  37  93 E7        29.87F WCI  34
OTTUMWA        CLOUDY    40  37  89 SE5       29.87R
WASHINGTON *   CLOUDY    39  39 100 E6        29.90F WCI  35
$$

ABBREVIATIONS USED IN REMARKS
   TC - TEMPERATURES IN CELSIUS
  WCI - WIND CHILL INDEX
   HX - HEAT INDEX
  VSB - VISIBILITY
$$





USA.gov is the U.S. government's official web portal to all federal, state and local government web resources and services.